Overview Statistics Trail Chart Weather Telemetry Raw packets
 

This is the latest recevied weather packets stored in our database for station/object N5TDX. If no packets are shown the sender has not sent any weather packets the latest 10 day(s).

<< 96 97 98 99 100 101 102 >>
Time Temp. Humidity Pressure Rain* Wind** Luminosity Snow
1787950514 38.89° C 27% 1012.6 hPa 0 mm - - -
1787950211 39.44° C 28% 1012.9 hPa 0 mm - - -
1787949907 38.89° C 27% 1012.9 hPa 0 mm - - -
1787949601 38.89° C 29% 1013 hPa 0 mm - - -
1787949296 38.33° C 28% 1013 hPa 0 mm - - -
1787948991 38.33° C 27% 1013.2 hPa 0 mm - - -
1787948687 39.44° C 26% 1013.3 hPa 0 mm - - -
1787948383 38.89° C 27% 1013.3 hPa 0 mm - - -
1787948082 38.33° C 29% 1013.5 hPa 0 mm - - -
1787947782 37.78° C 29% 1013.3 hPa 0 mm - - -
1787947481 37.78° C 29% 1013.6 hPa 0 mm - - -
1787947181 38.89° C 29% 1013.6 hPa 0 mm - - -
1787946880 38.33° C 28% 1013.6 hPa 0 mm - - -
1787946578 38.33° C 29% 1013.9 hPa 0 mm - - -
1787946274 37.78° C 29% 1013.7 hPa 0 mm - - -
1787945974 37.78° C 30% 1013.9 hPa 0 mm - - -
1787945669 38.89° C 30% 1014.1 hPa 0 mm - - -
1787945368 39.44° C 29% 1014.1 hPa 0 mm - - -
1787945064 39.44° C 28% 1014 hPa 0 mm - - -
1787944761 39.44° C 27% 1014 hPa 0 mm - - -
1787944457 38.33° C 29% 1014.3 hPa 0 mm - - -
1787944152 38.33° C 29% 1014.3 hPa 0 mm - - -
1787943847 38.89° C 30% 1014.2 hPa 0 mm - - -
1787943543 38.33° C 28% 1014.3 hPa 0 mm - - -
1787943238 38.89° C 29% 1014.3 hPa 0 mm - - -

* Rain latest hour (hover to see other rain measurements)
** Current wind speed in m/s (hover to see current wind gust speed)